Time,TemperatureF,DewpointF,PressureIn,WindDirection,WindDirectionDegrees,WindSpeedMPH,WindSpeedGustMPH,Humidity,HourlyPrecipIn,Conditions,Clouds,dailyrainin,SoftwareType,DateUTC
2013-08-13 00:01:00,74.1,65.7,29.96,SSW,205,0.0,0.0,75,0.00,,---,0.00,VWS V14.01,2013-08-13 04:01:00,
2013-08-13 00:03:00,74.1,65.7,29.96,SSW,205,0.0,0.0,75,0.00,,---,0.00,VWS V14.01,2013-08-13 04:03:00,
2013-08-13 00:07:00,73.9,65.6,29.96,SSW,205,0.0,0.0,75,0.00,,---,0.00,VWS V14.01,2013-08-13 04:07:00,
2013-08-13 00:12:00,73.8,65.9,29.96,SSW,205,0.0,0.0,76,0.00,,---,0.00,VWS V14.01,2013-08-13 04:12:00,
2013-08-13 00:17:00,73.8,65.9,29.96,SSW,205,0.0,0.0,76,0.00,,---,0.00,VWS V14.01,2013-08-13 04:17:00,
2013-08-13 00:22:00,73.6,65.7,29.96,SSW,205,0.0,0.0,76,0.00,,---,0.00,VWS V14.01,2013-08-13 04:22:00,
2013-08-13 00:27:00,73.6,66.2,29.96,SSW,197,0.0,0.0,78,0.00,,---,0.00,VWS V14.01,2013-08-13 04:27:00,
2013-08-13 00:33:00,73.6,66.2,29.96,SSW,197,0.0,0.0,78,0.00,,---,0.00,VWS V14.01,2013-08-13 04:33:00,
2013-08-13 00:38:00,73.6,66.2,29.96,SSW,202,0.0,0.0,78,0.00,,---,0.00,VWS V14.01,2013-08-13 04:38:00,
2013-08-13 00:43:00,73.6,66.8,29.96,SSW,202,0.0,0.0,79,0.00,,---,0.00,VWS V14.01,2013-08-13 04:43:00,
2013-08-13 00:48:00,73.6,66.8,29.96,SSW,202,0.0,0.0,79,0.00,,---,0.00,VWS V14.01,2013-08-13 04:48:00,
2013-08-13 00:53:00,73.6,66.8,29.96,SSW,202,0.0,0.0,79,0.00,,---,0.00,VWS V14.01,2013-08-13 04:53:00,
2013-08-13 00:58:00,73.6,66.8,29.96,SSW,202,0.0,0.0,79,0.00,,---,0.00,VWS V14.01,2013-08-13 04:58:00,
2013-08-13 01:04:00,73.6,67.3,29.96,SSW,202,0.0,0.0,81,0.00,,---,0.00,VWS V14.01,2013-08-13 05:04:00,
2013-08-13 01:09:00,73.6,67.3,29.96,SSW,202,0.0,0.0,81,0.00,,---,0.00,VWS V14.01,2013-08-13 05:09:00,
2013-08-13 01:14:00,73.6,67.3,29.96,SSW,202,0.0,0.0,81,0.00,,---,0.00,VWS V14.01,2013-08-13 05:14:00,
2013-08-13 01:19:00,73.6,67.3,29.96,SSW,202,0.0,0.0,81,0.00,,---,0.00,VWS V14.01,2013-08-13 05:19:00,
2013-08-13 01:24:00,73.4,67.1,29.96,SSW,202,0.0,0.0,81,0.00,,---,0.00,VWS V14.01,2013-08-13 05:24:00,
2013-08-13 01:29:00,73.4,67.1,29.96,SSW,202,0.0,0.0,81,0.00,,---,0.00,VWS V14.01,2013-08-13 05:29:00,
2013-08-13 01:34:00,73.4,67.1,29.96,SSW,202,0.0,0.0,81,0.00,,---,0.00,VWS V14.01,2013-08-13 05:34:00,
2013-08-13 01:39:00,73.2,67.4,29.96,SSW,202,0.0,0.0,82,0.00,,---,0.00,VWS V14.01,2013-08-13 05:39:00,
2013-08-13 01:44:00,73.2,67.4,29.96,SSW,202,0.0,0.0,82,0.00,,---,0.00,VWS V14.01,2013-08-13 05:44:00,
2013-08-13 01:50:00,73.0,67.2,29.96,SSW,202,0.0,0.0,82,0.00,,---,0.00,VWS V14.01,2013-08-13 05:50:00,
2013-08-13 01:55:00,72.9,67.1,29.96,SSE,166,0.0,0.0,82,0.00,,---,0.00,VWS V14.01,2013-08-13 05:55:00,
2013-08-13 02:00:00,72.9,67.5,29.93,SSE,152,0.0,0.0,83,0.00,,---,0.00,VWS V14.01,2013-08-13 06:00:00,
2013-08-13 02:05:00,72.7,67.4,29.93,SSE,154,0.0,0.0,83,0.00,,---,0.00,VWS V14.01,2013-08-13 06:05:00,
2013-08-13 02:10:00,72.7,67.4,29.93,SSE,153,0.0,0.0,83,0.00,,---,0.00,VWS V14.01,2013-08-13 06:10:00,
2013-08-13 02:15:00,72.5,67.2,29.93,SSE,160,0.0,0.0,83,0.00,,---,0.00,VWS V14.01,2013-08-13 06:15:00,
2013-08-13 02:20:00,72.5,67.7,29.93,SSE,160,0.0,0.0,85,0.00,,---,0.00,VWS V14.01,2013-08-13 06:20:00,
2013-08-13 02:25:00,72.3,67.5,29.93,SSE,160,0.0,0.0,85,0.00,,---,0.00,VWS V14.01,2013-08-13 06:25:00,
2013-08-13 02:30:00,72.3,67.5,29.93,SSE,160,0.0,0.0,85,0.00,,---,0.00,VWS V14.01,2013-08-13 06:30:00,
2013-08-13 02:36:00,72.3,67.5,29.93,SSE,160,0.0,0.0,85,0.00,,---,0.00,VWS V14.01,2013-08-13 06:36:00,
2013-08-13 02:41:00,72.3,67.5,29.93,SSE,160,0.0,0.0,85,0.00,,---,0.00,VWS V14.01,2013-08-13 06:41:00,
2013-08-13 02:46:00,72.3,68.0,29.93,SSE,160,0.0,0.0,86,0.00,,---,0.00,VWS V14.01,2013-08-13 06:46:00,
2013-08-13 02:51:00,72.3,68.0,29.93,SSE,160,0.0,0.0,86,0.00,,---,0.00,VWS V14.01,2013-08-13 06:51:00,
2013-08-13 02:56:00,72.1,67.8,29.93,SSE,160,0.0,0.0,86,0.00,,---,0.00,VWS V14.01,2013-08-13 06:56:00,
2013-08-13 03:01:00,72.1,67.8,29.93,SSE,160,0.0,0.0,86,0.00,,---,0.00,VWS V14.01,2013-08-13 07:01:00,
2013-08-13 03:06:00,72.0,67.6,29.93,SSE,160,0.0,0.0,86,0.00,,---,0.00,VWS V14.01,2013-08-13 07:06:00,
2013-08-13 03:12:00,72.0,67.6,29.93,SSE,160,0.0,0.0,86,0.00,,---,0.00,VWS V14.01,2013-08-13 07:12:00,
2013-08-13 03:17:00,71.8,67.4,29.90,SSE,160,0.0,0.0,86,0.00,,---,0.00,VWS V14.01,2013-08-13 07:17:00,
2013-08-13 03:22:00,71.8,67.9,29.90,SSE,160,0.0,0.0,88,0.00,,---,0.00,VWS V14.01,2013-08-13 07:22:00,
2013-08-13 03:27:00,71.8,67.9,29.90,SSE,160,0.0,0.0,88,0.00,,---,0.00,VWS V14.01,2013-08-13 07:27:00,
2013-08-13 03:32:00,71.6,67.7,29.90,SSE,160,0.0,0.0,88,0.00,,---,0.00,VWS V14.01,2013-08-13 07:32:00,
2013-08-13 03:37:00,71.6,67.7,29.90,SSE,160,0.0,0.0,88,0.00,,---,0.00,VWS V14.01,2013-08-13 07:37:00,
2013-08-13 03:43:00,71.6,67.7,29.90,SSE,160,0.0,0.0,88,0.00,,---,0.00,VWS V14.01,2013-08-13 07:43:00,
2013-08-13 03:48:00,71.6,67.7,29.90,SSE,160,0.0,0.0,88,0.00,,---,0.00,VWS V14.01,2013-08-13 07:48:00,
2013-08-13 03:53:00,71.6,68.2,29.90,NE,40,0.0,0.0,89,0.00,,---,0.00,VWS V14.01,2013-08-13 07:53:00,
2013-08-13 03:58:00,71.6,68.2,29.90,NE,40,0.0,0.0,89,0.00,,---,0.00,VWS V14.01,2013-08-13 07:58:00,
2013-08-13 04:03:00,71.6,68.2,29.90,NE,40,0.0,0.0,89,0.00,,---,0.00,VWS V14.01,2013-08-13 08:03:00,
2013-08-13 04:08:00,71.6,68.2,29.90,NE,40,0.0,0.0,89,0.00,,---,0.00,VWS V14.01,2013-08-13 08:08:00,
2013-08-13 04:14:00,71.6,68.2,29.90,NE,41,0.0,0.0,89,0.00,,---,0.00,VWS V14.01,2013-08-13 08:14:00,
2013-08-13 04:19:00,71.4,68.4,29.90,SSE,150,0.0,0.0,90,0.00,,---,0.00,VWS V14.01,2013-08-13 08:19:00,
2013-08-13 04:24:00,71.4,68.4,29.90,SSE,149,0.0,0.0,90,0.00,,---,0.00,VWS V14.01,2013-08-13 08:24:00,
2013-08-13 04:29:00,71.4,68.4,29.90,SSE,149,0.0,0.0,90,0.00,,---,0.00,VWS V14.01,2013-08-13 08:29:00,
2013-08-13 04:34:00,71.4,68.4,29.90,SSE,149,0.0,0.0,90,0.00,,---,0.00,VWS V14.01,2013-08-13 08:34:00,
2013-08-13 04:39:00,71.4,68.4,29.90,SSE,149,0.0,0.0,90,0.00,,---,0.00,VWS V14.01,2013-08-13 08:39:00,
2013-08-13 04:44:00,71.4,68.9,29.90,SSE,149,0.0,0.0,92,0.00,,---,0.00,VWS V14.01,2013-08-13 08:44:00,
2013-08-13 04:49:00,71.4,68.9,29.90,SSE,149,0.0,0.0,92,0.00,,---,0.00,VWS V14.01,2013-08-13 08:49:00,
2013-08-13 04:54:00,71.2,68.7,29.90,SSE,149,0.0,0.0,92,0.00,,---,0.00,VWS V14.01,2013-08-13 08:54:00,
2013-08-13 04:59:00,71.2,68.7,29.90,SSE,149,0.0,0.0,92,0.00,,---,0.16,VWS V14.01,2013-08-13 08:59:00,
2013-08-13 05:04:00,71.2,68.7,29.90,SSE,147,0.0,0.0,92,0.00,,---,0.00,VWS V14.01,2013-08-13 09:04:00,
2013-08-13 05:10:00,71.1,68.5,29.90,SSE,159,0.0,3.2,92,0.00,,---,0.00,VWS V14.01,2013-08-13 09:10:00,
2013-08-13 05:15:00,71.1,68.5,29.87,SE,139,0.0,0.0,92,0.00,,---,0.00,VWS V14.01,2013-08-13 09:15:00,
2013-08-13 05:20:00,71.1,68.5,29.87,SE,124,0.0,0.0,92,0.00,,---,0.00,VWS V14.01,2013-08-13 09:20:00,
2013-08-13 05:25:00,70.9,68.8,29.87,SE,124,0.0,0.0,93,0.00,,---,0.00,VWS V14.01,2013-08-13 09:25:00,
2013-08-13 05:30:00,70.9,68.8,29.87,SE,124,0.0,0.0,93,0.00,,---,0.00,VWS V14.01,2013-08-13 09:30:00,
2013-08-13 05:35:00,70.9,68.8,29.87,SE,124,0.0,0.0,93,0.00,,---,0.00,VWS V14.01,2013-08-13 09:35:00,
2013-08-13 05:41:00,70.9,68.8,29.87,SE,124,0.0,0.0,93,0.00,,---,0.00,VWS V14.01,2013-08-13 09:41:00,
2013-08-13 05:46:00,70.7,68.6,29.87,SE,124,0.0,0.0,93,0.00,,---,0.00,VWS V14.01,2013-08-13 09:46:00,
2013-08-13 05:51:00,70.7,68.6,29.87,SE,138,0.0,0.0,93,0.00,,---,0.00,VWS V14.01,2013-08-13 09:51:00,
2013-08-13 05:56:00,70.5,68.4,29.87,SE,139,0.0,0.0,93,0.00,,---,0.00,VWS V14.01,2013-08-13 09:56:00,
2013-08-13 06:01:00,70.5,68.4,29.87,SE,139,0.0,0.0,93,0.00,,---,0.00,VWS V14.01,2013-08-13 10:01:00,
2013-08-13 06:06:00,70.3,68.3,29.87,SE,139,0.0,0.0,93,0.00,,---,0.00,VWS V14.01,2013-08-13 10:06:00,
2013-08-13 06:11:00,70.3,68.7,29.87,SE,139,0.0,0.0,95,0.00,,---,0.00,VWS V14.01,2013-08-13 10:11:00,
2013-08-13 06:17:00,70.3,68.7,29.87,SE,139,0.0,0.0,95,0.00,,---,0.00,VWS V14.01,2013-08-13 10:17:00,
2013-08-13 06:22:00,70.3,68.7,29.87,SE,139,0.0,0.0,95,0.00,,---,0.00,VWS V14.01,2013-08-13 10:22:00,
2013-08-13 06:27:00,70.3,68.7,29.87,SE,139,0.0,0.0,95,0.00,,---,0.00,VWS V14.01,2013-08-13 10:27:00,
2013-08-13 06:32:00,70.2,68.5,29.87,SE,139,0.0,0.0,95,0.00,,---,0.00,VWS V14.01,2013-08-13 10:32:00,
2013-08-13 06:37:00,70.2,68.5,29.87,South,179,0.0,0.0,95,0.00,,---,0.00,VWS V14.01,2013-08-13 10:37:00,
2013-08-13 06:42:00,70.0,68.3,29.87,SSW,206,0.0,0.0,95,0.00,,---,0.00,VWS V14.01,2013-08-13 10:42:00,
2013-08-13 06:47:00,70.0,68.3,29.87,SSW,206,0.0,0.0,95,0.00,,---,0.00,VWS V14.01,2013-08-13 10:47:00,
2013-08-13 06:52:00,70.0,68.3,29.87,SSW,204,0.0,0.0,95,0.00,,---,0.00,VWS V14.01,2013-08-13 10:52:00,
2013-08-13 06:58:00,70.2,68.5,29.87,SSW,203,0.0,0.0,95,0.00,,---,0.00,VWS V14.01,2013-08-13 10:58:00,
2013-08-13 07:03:00,70.2,68.9,29.87,SSW,204,0.0,0.0,96,0.00,,---,0.00,VWS V14.01,2013-08-13 11:03:00,
2013-08-13 07:08:00,70.2,68.9,29.87,SSW,203,0.0,0.0,96,0.00,,---,0.00,VWS V14.01,2013-08-13 11:08:00,
2013-08-13 07:13:00,70.2,68.9,29.90,SSW,204,0.0,0.0,96,0.00,,---,0.00,VWS V14.01,2013-08-13 11:13:00,
2013-08-13 07:18:00,70.3,69.1,29.90,SSW,203,0.0,0.0,96,0.00,,---,0.00,VWS V14.01,2013-08-13 11:18:00,
2013-08-13 07:24:00,70.3,69.1,29.90,SSW,203,0.0,0.0,96,0.00,,---,0.00,VWS V14.01,2013-08-13 11:24:00,
2013-08-13 07:29:00,70.3,69.1,29.90,SSW,203,0.0,0.0,96,0.00,,---,0.00,VWS V14.01,2013-08-13 11:29:00,
2013-08-13 07:34:00,70.5,69.3,29.90,SSW,203,0.0,0.0,96,0.00,,---,0.00,VWS V14.01,2013-08-13 11:34:00,
2013-08-13 07:39:00,70.5,69.3,29.90,SSW,203,0.0,0.0,96,0.00,,---,0.00,VWS V14.01,2013-08-13 11:39:00,
2013-08-13 07:44:00,70.5,69.3,29.90,NW,318,0.0,0.0,96,0.00,,---,0.00,VWS V14.01,2013-08-13 11:44:00,
2013-08-13 07:49:00,70.7,69.9,29.90,WSW,251,0.0,0.0,97,0.00,,---,0.00,VWS V14.01,2013-08-13 11:49:00,
2013-08-13 07:54:00,70.5,69.3,29.90,WSW,254,0.0,0.0,96,0.00,,---,0.00,VWS V14.01,2013-08-13 11:54:00,
2013-08-13 08:00:00,70.3,69.1,29.87,NW,305,3.9,3.9,96,0.00,,---,0.00,VWS V14.01,2013-08-13 12:00:00,
2013-08-13 08:05:00,70.5,69.7,29.87,NW,317,0.0,0.0,97,0.00,,---,0.00,VWS V14.01,2013-08-13 12:05:00,
2013-08-13 08:10:00,70.7,69.9,29.87,NNW,336,3.2,4.5,97,0.00,,---,0.00,VWS V14.01,2013-08-13 12:10:00,
2013-08-13 08:15:00,71.1,70.3,29.90,North,0,0.0,3.9,97,0.00,,---,0.00,VWS V14.01,2013-08-13 12:15:00,
2013-08-13 08:20:00,71.2,70.4,29.90,North,353,0.0,0.0,97,0.00,,---,0.00,VWS V14.01,2013-08-13 12:20:00,
2013-08-13 08:25:00,71.6,70.8,29.90,NNW,336,5.2,5.8,97,0.00,,---,0.00,VWS V14.01,2013-08-13 12:25:00,